Weather History for Gonzales, LA

Change the Weather History Date:

Friday, February 28, 2014

  Actual Average (KBTR) Record (KBTR)
Temperature  
Mean Temperature 48 °F 58 °F  
Max Temperature 64 °F 69 °F 87 °F (1917)
Min Temperature 33 °F 47 °F 22 °F (1935)
Degree Days  
Heating Degree Days 16 8  
Month to date heating degree days 295  
Since 1 July heating degree days 1335  
Cooling Degree Days 0 1  
Month to date cooling degree days 18  
Year to date cooling degree days 31  
Moisture  
Dew Point 41 °F    
Average Humidity 73    
Maximum Humidity 99    
Minimum Humidity 43    
Precipitation  
Precipitation 0.00 in 0.17 in 2.07 in (1995)
Month to date precipitation 5.04  
Year to date precipitation 10.76  
Snow  
Snow 0.00 in - - ()
Month to date snowfall  
Since 1 July snowfall  
Snow Depth -    
Sea Level Pressure  
Sea Level Pressure 30.03 in    
Wind  
Wind Speed 4 mph (SE)    
Max Wind Speed 12 mph    
Max Gust Speed 21 mph    
Visibility 10 miles    
Events      
T = Trace of Precipitation, MM = Missing Value Source: NWS Daily Summary

Daily Weather History Graph

Daily Weather History Graph

Search for Another Location

Airport:

Trip Planner

Search our weather history database for the weather conditions in past years. The results will help you decide how hot, cold, wet, or windy it might be!

Date:

Astronomy

Feb. 28, 2014 Rise Set
Actual Time 6:30 AM CST 6:02 PM CST
Civil Twilight 6:06 AM CST 6:26 PM CST
Nautical Twilight 5:38 AM CST 6:54 PM CST
Astronomical Twilight 5:11 AM CST 7:21 PM CST
Moon 5:44 AM CST (2/28) 5:38 PM CST (2/28)
Length of Visible Light 12h 19m
Length of Day
11h 31m
Waning Crescent, 1% of the Moon is Illuminated
Feb 28
Waning Crescent
Mar 1
New
Mar 8
First Quarter
Mar 16
Full
Mar 23
Last Quarter

Hourly Weather History & Observations

Time (CST) Temp. Windchill Dew Point Humidity Pressure Visibility Wind Dir Wind Speed Gust Speed Precip Events Conditions
12:15 AM 35.2 °F - 32.0 °F 88% 30.04 in 10.0 mi Calm Calm - N/A   Clear
12:35 AM 35.8 °F - 32.0 °F 86% 30.03 in 10.0 mi Calm Calm - N/A   Clear
12:55 AM 36.1 °F - 32.0 °F 85% 30.03 in 10.0 mi Calm Calm - N/A   Clear
1:15 AM 35.6 °F - 32.7 °F 89% 30.03 in 10.0 mi Calm Calm - N/A   Clear
1:35 AM 34.9 °F - 32.5 °F 91% 30.03 in 10.0 mi Calm Calm - N/A   Clear
1:55 AM 35.1 °F - 32.5 °F 91% 30.03 in 10.0 mi Calm Calm - N/A   Clear
2:15 AM 34.7 °F - 32.9 °F 93% 30.03 in 10.0 mi Calm Calm - N/A   Clear
2:35 AM 34.2 °F - 32.7 °F 94% 30.03 in 10.0 mi Calm Calm - N/A   Clear
2:55 AM 34.7 °F - 32.9 °F 93% 30.02 in 10.0 mi Calm Calm - N/A   Clear
3:15 AM 33.8 °F - 32.0 °F 93% 30.02 in 10.0 mi Calm Calm - N/A   Clear
3:35 AM 35.1 °F 32.2 °F 34.0 °F 96% 30.01 in 10.0 mi East 3.5 mph - N/A   Clear
3:55 AM 33.4 °F - 32.9 °F 98% 30.00 in 10.0 mi Calm Calm - N/A   Clear
4:15 AM 34.2 °F - 33.3 °F 97% 30.01 in 10.0 mi Calm Calm - N/A   Clear
4:35 AM 34.7 °F - 34.0 °F 97% 30.01 in 10.0 mi Calm Calm - N/A   Clear
4:55 AM 33.3 °F - 32.7 °F 98% 30.03 in 10.0 mi Calm Calm - N/A   Clear
5:15 AM 33.8 °F - 33.4 °F 99% 30.03 in 10.0 mi North - - N/A   Clear
5:35 AM 33.8 °F - 33.6 °F 99% 30.04 in 10.0 mi North - - N/A   Clear
5:55 AM 34.9 °F - 34.7 °F 99% 30.04 in 10.0 mi North - - N/A   Clear
6:15 AM 34.3 °F - 34.2 °F 99% 30.04 in 7.0 mi Calm Calm - N/A   Clear
6:35 AM 34.3 °F - 34.0 °F 99% 30.03 in 10.0 mi Calm Calm - N/A   Clear
6:55 AM 33.6 °F - 33.4 °F 99% 30.05 in 7.0 mi Calm Calm - N/A   Clear
7:15 AM 34.9 °F - 34.7 °F 99% 30.06 in 7.0 mi Calm Calm - N/A   Clear
7:35 AM 36.7 °F - 36.5 °F 99% 30.07 in 10.0 mi Calm Calm - N/A   Clear
7:55 AM 41.7 °F - 38.3 °F 88% 30.07 in 10.0 mi Calm Calm - N/A   Clear
8:15 AM 44.6 °F - 39.7 °F 83% 30.07 in 10.0 mi Calm Calm - N/A   Clear
8:35 AM 47.5 °F - 37.9 °F 69% 30.07 in 10.0 mi Calm Calm - N/A   Clear
8:55 AM 49.6 °F - 35.1 °F 57% 30.08 in 10.0 mi SE 3.5 mph - N/A   Clear
9:15 AM 52.0 °F - 36.3 °F 55% 30.07 in 10.0 mi ESE 5.8 mph - N/A   Clear
9:35 AM 53.2 °F - 33.6 °F 47% 30.07 in 10.0 mi SE 10.4 mph - N/A   Clear
9:55 AM 54.0 °F - 32.0 °F 43% 30.08 in 10.0 mi SE 10.4 mph 16.1 mph N/A   Clear
10:15 AM 54.7 °F - 34.9 °F 47% 30.09 in 10.0 mi ESE 10.4 mph - N/A   Clear
10:35 AM 56.7 °F - 37.9 °F 50% 30.08 in 10.0 mi SE 8.1 mph - N/A   Clear
10:55 AM 57.0 °F - 37.4 °F 48% 30.08 in 10.0 mi SSE 9.2 mph - N/A   Clear
11:15 AM 57.6 °F - 37.4 °F 47% 30.09 in 10.0 mi South 8.1 mph - N/A   Clear
11:35 AM 58.3 °F - 37.2 °F 45% 30.07 in 10.0 mi SE 10.4 mph - N/A   Clear
11:55 AM 59.5 °F - 38.7 °F 46% 30.06 in 10.0 mi SE 10.4 mph - N/A   Clear
12:15 PM 59.5 °F - 38.8 °F 46% 30.05 in 10.0 mi SE 10.4 mph 17.3 mph N/A   Clear
12:35 PM 60.4 °F - 39.9 °F 47% 30.05 in 10.0 mi SSE 6.9 mph 16.1 mph N/A   Clear
12:55 PM 61.5 °F - 41.4 °F 48% 30.04 in 10.0 mi SE 10.4 mph 16.1 mph N/A   Clear
1:15 PM 62.4 °F - 43.0 °F 49% 30.03 in 10.0 mi South 8.1 mph 20.7 mph N/A   Clear
1:35 PM 62.4 °F - 42.1 °F 47% 30.01 in 10.0 mi SE 8.1 mph 17.3 mph N/A   Clear
1:55 PM 63.0 °F - 43.2 °F 48% 30.00 in 10.0 mi SE 10.4 mph - N/A   Clear
2:15 PM 63.5 °F - 44.6 °F 50% 30.00 in 10.0 mi South 10.4 mph - N/A   Clear
2:35 PM 63.9 °F - 45.1 °F 51% 30.00 in 10.0 mi SE 9.2 mph - N/A   Scattered Clouds
2:55 PM 64.2 °F - 47.7 °F 55% 29.99 in 10.0 mi South 10.4 mph 16.1 mph N/A   Mostly Cloudy
3:15 PM 63.5 °F - 47.5 °F 56% 29.99 in 10.0 mi SSE 11.5 mph 16.1 mph N/A   Overcast
3:35 PM 62.6 °F - 47.3 °F 57% 30.00 in 10.0 mi South 8.1 mph - N/A   Overcast
3:55 PM 61.9 °F - 48.0 °F 60% 30.00 in 10.0 mi SSE 8.1 mph - N/A   Overcast
4:15 PM 62.2 °F - 48.7 °F 61% 30.00 in 10.0 mi SSE 8.1 mph - N/A   Overcast
4:35 PM 61.7 °F - 48.9 °F 63% 29.99 in 10.0 mi SE 8.1 mph - N/A   Overcast
4:55 PM 61.9 °F - 49.1 °F 63% 29.98 in 10.0 mi SE 10.4 mph - N/A   Overcast
5:15 PM 61.7 °F - 49.1 °F 63% 29.98 in 10.0 mi SE 9.2 mph - N/A   Overcast
5:35 PM 61.3 °F - 49.3 °F 65% 29.98 in 10.0 mi SE 8.1 mph - N/A   Overcast
5:55 PM 61.2 °F - 49.5 °F 65% 29.99 in 10.0 mi SSE 9.2 mph - N/A   Overcast
6:15 PM 60.8 °F - 49.6 °F 67% 29.99 in 10.0 mi SSE 8.1 mph - N/A   Overcast
6:35 PM 60.8 °F - 50.2 °F 68% 29.99 in 10.0 mi SSE 5.8 mph - N/A   Overcast
7:00 PM 60.8 °F - 50.4 °F 68% 30.00 in 10.0 mi SE 6.9 mph - N/A   Overcast
7:15 PM 60.4 °F - 50.9 °F 71% 30.00 in 10.0 mi SE 8.1 mph - N/A   Overcast
7:35 PM 59.9 °F - 50.9 °F 72% 29.99 in 10.0 mi SE 9.2 mph - N/A   Overcast
7:55 PM 59.4 °F - 50.9 °F 74% 29.99 in 10.0 mi ESE 9.2 mph - N/A   Overcast
8:15 PM 58.3 °F - 50.0 °F 74% 30.00 in 10.0 mi SE 9.2 mph 16.1 mph N/A   Overcast
8:35 PM 58.1 °F - 50.2 °F 75% 30.00 in 10.0 mi SE 6.9 mph - N/A   Overcast
8:55 PM 58.1 °F - 50.4 °F 75% 30.00 in 10.0 mi SE 9.2 mph - N/A   Overcast
9:15 PM 58.5 °F - 50.5 °F 75% 30.00 in 10.0 mi SE 5.8 mph - N/A   Overcast
9:35 PM 58.6 °F - 50.7 °F 75% 30.01 in 10.0 mi SE 4.6 mph - N/A   Overcast
9:55 PM 59.0 °F - 50.9 °F 74% 30.02 in 10.0 mi SE 5.8 mph - N/A   Overcast
10:15 PM 59.2 °F - 51.1 °F 74% 30.03 in 10.0 mi SE 5.8 mph - N/A   Overcast
10:35 PM 59.2 °F - 51.3 °F 75% 30.03 in 10.0 mi SE 5.8 mph - N/A   Overcast
10:55 PM 59.2 °F - 51.8 °F 77% 30.03 in 10.0 mi SE 5.8 mph - N/A   Overcast
11:15 PM 59.4 °F - 51.8 °F 76% 30.04 in 10.0 mi SE 4.6 mph - N/A   Overcast
11:35 PM 59.5 °F - 52.3 °F 77% 30.03 in 10.0 mi SE 4.6 mph - N/A   Overcast
11:55 PM 59.9 °F - 52.9 °F 78% 30.03 in 10.0 mi SSE 6.9 mph - N/A   Overcast